AMU660 VMMC-RCKH

Flight info

Callsign AMU660
Flight time 1h 9m
Altitude 37000
Route CONGA V631 ENVAR M750 TOROX W6 TNN TNN1M
Aircraft A320/M-SDE3FGHIRWY/LB1

Departure

Time 2026-04-26 12:46
Airport Macau International Airport (VMMC)

Arrival

Time 2026-04-26 13:55
Airport Kaohsiung International Airport (RCKH)
Time Latitude Longitude Altitude Speed Heading
2026-04-26 12:27 22.15624 113.57411 29 ft 0 kts 333°
2026-04-26 12:34 22.15622 113.57412 29 ft 2 kts 333°
2026-04-26 12:34 22.15598 113.57424 29 ft 4 kts 338°
2026-04-26 12:34 22.15573 113.57434 29 ft 4 kts 346°
2026-04-26 12:35 22.15546 113.57437 29 ft 4 kts 16°
2026-04-26 12:35 22.15532 113.57428 29 ft 1 kts 62°
2026-04-26 12:35 22.15531 113.57425 29 ft 0 kts 62°
2026-04-26 12:38 22.15536 113.57434 29 ft 3 kts 62°
2026-04-26 12:38 22.15558 113.57480 29 ft 12 kts 60°
2026-04-26 12:38 22.15609 113.57554 29 ft 8 kts 47°
2026-04-26 12:38 22.15606 113.57614 29 ft 10 kts 122°
2026-04-26 12:39 22.15563 113.57686 29 ft 13 kts 124°
2026-04-26 12:39 22.15508 113.57774 29 ft 16 kts 123°
2026-04-26 12:39 22.15438 113.57887 29 ft 21 kts 124°
2026-04-26 12:39 22.15351 113.58027 29 ft 23 kts 123°
2026-04-26 12:40 22.15257 113.58179 29 ft 25 kts 123°
2026-04-26 12:40 22.15156 113.58343 29 ft 27 kts 124°
2026-04-26 12:40 22.15049 113.58515 29 ft 27 kts 123°
2026-04-26 12:40 22.14970 113.58642 29 ft 12 kts 123°
2026-04-26 12:41 22.14939 113.58692 29 ft 4 kts 123°
2026-04-26 12:41 22.14918 113.58727 29 ft 7 kts 123°
2026-04-26 12:41 22.14884 113.58781 29 ft 11 kts 123°
2026-04-26 12:41 22.14837 113.58858 29 ft 14 kts 123°
2026-04-26 12:42 22.14773 113.58963 29 ft 19 kts 123°
2026-04-26 12:42 22.14677 113.59053 28 ft 14 kts 162°
2026-04-26 12:42 22.14580 113.59090 28 ft 16 kts 160°
2026-04-26 12:42 22.14462 113.59134 28 ft 21 kts 161°
2026-04-26 12:43 22.14311 113.59190 28 ft 24 kts 161°
2026-04-26 12:43 22.14147 113.59250 29 ft 26 kts 161°
2026-04-26 12:43 22.13972 113.59315 28 ft 27 kts 160°
2026-04-26 12:43 22.13788 113.59383 29 ft 29 kts 163°
2026-04-26 12:44 22.13660 113.59429 28 ft 30 kts 160°
2026-04-26 12:44 22.13507 113.59550 28 ft 20 kts 123°
2026-04-26 12:44 22.13505 113.59640 28 ft 11 kts 50°
2026-04-26 12:44 22.13583 113.59645 28 ft 13 kts 341°
2026-04-26 12:45 22.13704 113.59599 29 ft 38 kts 341°
2026-04-26 12:45 22.14194 113.59419 29 ft 108 kts 341°
2026-04-26 12:45 22.15078 113.59091 29 ft 158 kts 341°
2026-04-26 12:45 22.16184 113.58684 419 ft 167 kts 341°
2026-04-26 12:46 22.17290 113.58298 965 ft 168 kts 348°
2026-04-26 12:46 22.18436 113.58395 1506 ft 167 kts 27°
2026-04-26 12:46 22.19396 113.59061 2049 ft 165 kts 34°
2026-04-26 12:46 22.20436 113.59730 2342 ft 185 kts 31°
2026-04-26 12:47 22.21640 113.60449 2619 ft 208 kts 30°
2026-04-26 12:47 22.22951 113.61226 3133 ft 218 kts 30°
2026-04-26 12:47 22.24287 113.62019 3894 ft 220 kts 29°
2026-04-26 12:47 22.25637 113.62825 4653 ft 224 kts 28°
2026-04-26 12:48 22.27010 113.63649 5349 ft 228 kts 28°
2026-04-26 12:48 22.28398 113.64532 5852 ft 237 kts 36°
2026-04-26 12:48 22.29793 113.65703 5977 ft 270 kts 38°
2026-04-26 12:48 22.31305 113.66998 5997 ft 282 kts 38°
2026-04-26 12:49 22.32839 113.68343 5996 ft 284 kts 42°
2026-04-26 12:49 22.34064 113.70015 5997 ft 285 kts 62°
2026-04-26 12:49 22.34726 113.72025 6001 ft 285 kts 78°
2026-04-26 12:49 22.35121 113.74122 6020 ft 287 kts 78°
2026-04-26 12:50 22.35534 113.76261 6714 ft 291 kts 78°
2026-04-26 12:50 22.35950 113.78399 7614 ft 291 kts 79°
2026-04-26 12:50 22.36371 113.80552 8451 ft 294 kts 79°
2026-04-26 12:50 22.36794 113.82722 9275 ft 296 kts 80°
2026-04-26 12:51 22.36939 113.84936 10048 ft 297 kts 95°
2026-04-26 12:51 22.36509 113.87183 10314 ft 317 kts 112°
2026-04-26 12:51 22.35402 113.89281 10556 ft 333 kts 130°
2026-04-26 12:51 22.33680 113.90969 11095 ft 339 kts 148°
2026-04-26 12:52 22.31638 113.92273 11694 ft 343 kts 150°
2026-04-26 12:52 22.29569 113.93573 11910 ft 344 kts 150°
2026-04-26 12:52 22.27504 113.94875 11969 ft 344 kts 150°
2026-04-26 12:52 22.25436 113.96180 11975 ft 343 kts 150°
2026-04-26 12:53 22.23430 113.97571 11972 ft 344 kts 142°
2026-04-26 12:53 22.21710 113.99398 12312 ft 350 kts 129°
2026-04-26 12:53 22.20349 114.01585 13026 ft 352 kts 122°
2026-04-26 12:53 22.19084 114.03861 13709 ft 355 kts 122°
2026-04-26 12:54 22.17807 114.06158 14284 ft 359 kts 122°
2026-04-26 12:54 22.16530 114.08455 14818 ft 363 kts 122°
2026-04-26 12:54 22.15219 114.10814 15352 ft 368 kts 122°
2026-04-26 12:54 22.13899 114.13198 15813 ft 373 kts 122°
2026-04-26 12:55 22.12625 114.15638 15945 ft 374 kts 120°
2026-04-26 12:55 22.11419 114.18133 15976 ft 375 kts 118°
2026-04-26 12:55 22.10254 114.20647 15978 ft 375 kts 117°
2026-04-26 12:55 22.09100 114.23164 15979 ft 375 kts 118°
2026-04-26 12:56 22.07727 114.25539 15982 ft 373 kts 129°
2026-04-26 12:56 22.05947 114.27563 16094 ft 374 kts 142°
2026-04-26 12:56 22.03857 114.29243 16673 ft 375 kts 146°
2026-04-26 12:56 22.01736 114.30901 17237 ft 379 kts 146°
2026-04-26 12:57 21.99598 114.32587 17758 ft 383 kts 145°
2026-04-26 12:57 21.97433 114.34296 18280 ft 387 kts 146°
2026-04-26 12:57 21.95248 114.36023 18735 ft 391 kts 146°
2026-04-26 12:58 21.90828 114.39509 19709 ft 397 kts 146°
2026-04-26 12:58 21.88593 114.41276 20205 ft 400 kts 144°
2026-04-26 12:58 21.86562 114.43305 20685 ft 406 kts 133°
2026-04-26 12:58 21.84882 114.45767 20933 ft 411 kts 122°
2026-04-26 12:59 21.83691 114.48562 20991 ft 413 kts 109°
2026-04-26 12:59 21.82917 114.51542 20994 ft 414 kts 106°
2026-04-26 12:59 21.82165 114.54532 21008 ft 415 kts 107°
2026-04-26 12:59 21.81393 114.57538 21481 ft 418 kts 107°
2026-04-26 13:00 21.80606 114.60563 21990 ft 421 kts 107°
2026-04-26 13:00 21.79922 114.63638 22461 ft 425 kts 98°
2026-04-26 13:00 21.79912 114.66833 22921 ft 430 kts 86°
2026-04-26 13:00 21.80145 114.70056 23393 ft 433 kts 86°
2026-04-26 13:01 21.80394 114.73298 23804 ft 437 kts 85°
2026-04-26 13:01 21.80653 114.76564 24193 ft 439 kts 85°
2026-04-26 13:01 21.80915 114.79852 24574 ft 442 kts 85°
2026-04-26 13:01 21.81176 114.83156 24950 ft 445 kts 85°
2026-04-26 13:02 21.81433 114.86489 25318 ft 448 kts 85°
2026-04-26 13:02 21.81687 114.89849 25684 ft 451 kts 85°
2026-04-26 13:02 21.81934 114.93171 26037 ft 454 kts 85°
2026-04-26 13:02 21.82185 114.96566 26388 ft 457 kts 85°
2026-04-26 13:03 21.82438 114.99992 26732 ft 460 kts 85°
2026-04-26 13:03 21.82691 115.03433 27066 ft 462 kts 85°
2026-04-26 13:03 21.82946 115.06898 27402 ft 465 kts 85°
2026-04-26 13:03 21.83203 115.10385 27735 ft 468 kts 85°
2026-04-26 13:04 21.83462 115.13888 28066 ft 471 kts 84°
2026-04-26 13:04 21.83725 115.17412 28396 ft 474 kts 84°
2026-04-26 13:04 21.83899 115.19760 28619 ft 476 kts 84°
2026-04-26 13:04 21.84192 115.23757 28991 ft 480 kts 84°
2026-04-26 13:05 21.84454 115.27350 29319 ft 483 kts 84°
2026-04-26 13:05 21.84716 115.30968 29641 ft 486 kts 84°
2026-04-26 13:05 21.84981 115.34608 29961 ft 489 kts 84°
2026-04-26 13:05 21.85248 115.38270 30240 ft 492 kts 84°
2026-04-26 13:06 21.85512 115.41905 30522 ft 495 kts 84°
2026-04-26 13:06 21.85780 115.45612 30818 ft 497 kts 84°
2026-04-26 13:06 21.86046 115.49325 31113 ft 498 kts 85°
2026-04-26 13:06 21.86310 115.53037 31529 ft 497 kts 85°
2026-04-26 13:07 21.86573 115.56744 31976 ft 495 kts 85°
2026-04-26 13:07 21.86836 115.60430 32422 ft 494 kts 85°
2026-04-26 13:07 21.87096 115.64115 32853 ft 492 kts 85°
2026-04-26 13:07 21.87353 115.67784 33290 ft 491 kts 85°
2026-04-26 13:08 21.87609 115.71437 33731 ft 490 kts 85°
2026-04-26 13:08 21.87864 115.75093 34153 ft 488 kts 85°
2026-04-26 13:08 21.88116 115.78741 34516 ft 488 kts 85°
2026-04-26 13:08 21.88364 115.82379 34845 ft 488 kts 85°
2026-04-26 13:09 21.88613 115.86024 35158 ft 488 kts 85°
2026-04-26 13:09 21.88863 115.89670 35451 ft 488 kts 85°
2026-04-26 13:09 21.89112 115.93310 35745 ft 488 kts 85°
2026-04-26 13:09 21.89367 115.96961 36036 ft 488 kts 85°
2026-04-26 13:10 21.89625 116.00607 36318 ft 489 kts 85°
2026-04-26 13:10 21.89881 116.04252 36595 ft 489 kts 85°
2026-04-26 13:10 21.90133 116.07904 36863 ft 489 kts 85°
2026-04-26 13:10 21.90383 116.11565 36986 ft 491 kts 85°
2026-04-26 13:11 21.90870 116.18866 37000 ft 492 kts 85°
2026-04-26 13:11 21.91361 116.26224 37000 ft 492 kts 85°
2026-04-26 13:12 21.91850 116.33578 37001 ft 493 kts 85°
2026-04-26 13:12 21.92340 116.40947 37005 ft 493 kts 85°
2026-04-26 13:13 21.92826 116.48315 37007 ft 493 kts 85°
2026-04-26 13:13 21.93307 116.55685 37015 ft 494 kts 86°
2026-04-26 13:14 21.93784 116.63065 37021 ft 494 kts 86°
2026-04-26 13:14 21.94265 116.70449 37022 ft 494 kts 86°
2026-04-26 13:15 21.94731 116.77839 37022 ft 494 kts 86°
2026-04-26 13:15 21.95119 116.83988 37023 ft 495 kts 86°
2026-04-26 13:16 21.95579 116.91384 37023 ft 495 kts 86°
2026-04-26 13:16 21.96113 116.99979 37020 ft 495 kts 86°
2026-04-26 13:17 21.96735 117.09866 37022 ft 494 kts 86°
2026-04-26 13:18 21.97493 117.22138 37018 ft 495 kts 86°
2026-04-26 13:19 21.98092 117.31975 37019 ft 495 kts 86°
2026-04-26 13:19 21.98535 117.39370 37019 ft 494 kts 86°
2026-04-26 13:20 21.99125 117.46745 37015 ft 494 kts 78°
2026-04-26 13:20 22.01342 117.53708 37018 ft 490 kts 59°
2026-04-26 13:21 22.04870 117.59978 37017 ft 489 kts 56°
2026-04-26 13:21 22.08420 117.66237 37020 ft 489 kts 56°
2026-04-26 13:22 22.11952 117.72507 37023 ft 489 kts 56°
2026-04-26 13:22 22.15492 117.78770 37027 ft 489 kts 56°
2026-04-26 13:23 22.19041 117.85034 37023 ft 489 kts 56°
2026-04-26 13:23 22.22568 117.91257 37028 ft 489 kts 56°
2026-04-26 13:24 22.26104 117.97536 37025 ft 489 kts 56°
2026-04-26 13:24 22.29644 118.03802 37026 ft 488 kts 56°
2026-04-26 13:25 22.33275 118.10010 37029 ft 488 kts 55°
2026-04-26 13:25 22.36921 118.16195 37030 ft 488 kts 55°
2026-04-26 13:26 22.40546 118.22392 37026 ft 487 kts 55°
2026-04-26 13:26 22.44079 118.28589 37032 ft 487 kts 56°
2026-04-26 13:27 22.47593 118.34856 37029 ft 487 kts 56°
2026-04-26 13:27 22.51112 118.41109 37029 ft 487 kts 56°
2026-04-26 13:28 22.54658 118.47360 37032 ft 487 kts 56°
2026-04-26 13:28 22.58195 118.53616 37031 ft 486 kts 56°
2026-04-26 13:29 22.61738 118.59846 37032 ft 486 kts 56°
2026-04-26 13:29 22.65295 118.66067 37030 ft 486 kts 56°
2026-04-26 13:30 22.68840 118.72289 37029 ft 486 kts 56°
2026-04-26 13:30 22.72357 118.78489 37028 ft 486 kts 56°
2026-04-26 13:31 22.75892 118.84722 37028 ft 485 kts 56°
2026-04-26 13:31 22.79425 118.90970 37024 ft 486 kts 56°
2026-04-26 13:32 22.82957 118.97215 37023 ft 485 kts 56°
2026-04-26 13:32 22.86490 119.03465 36827 ft 485 kts 56°
2026-04-26 13:32 22.88230 119.06544 35828 ft 485 kts 56°
2026-04-26 13:33 22.89995 119.09669 35070 ft 488 kts 56°
2026-04-26 13:33 22.91776 119.12827 34414 ft 490 kts 56°
2026-04-26 13:33 22.93545 119.15973 33882 ft 487 kts 57°
2026-04-26 13:33 22.95310 119.19105 33295 ft 485 kts 57°
2026-04-26 13:34 22.97062 119.22210 32740 ft 482 kts 57°
2026-04-26 13:34 22.98810 119.25309 32179 ft 479 kts 57°
2026-04-26 13:34 23.00544 119.28392 31617 ft 477 kts 57°
2026-04-26 13:34 23.01683 119.30420 31248 ft 475 kts 57°
2026-04-26 13:35 23.03976 119.34510 30503 ft 472 kts 57°
2026-04-26 13:35 23.05677 119.37547 29926 ft 469 kts 57°
2026-04-26 13:35 23.07369 119.40566 29360 ft 464 kts 57°
2026-04-26 13:35 23.09039 119.43547 28838 ft 459 kts 57°
2026-04-26 13:36 23.10692 119.46495 28320 ft 455 kts 57°
2026-04-26 13:36 23.12304 119.49371 27827 ft 450 kts 57°
2026-04-26 13:36 23.13927 119.52268 27334 ft 446 kts 57°
2026-04-26 13:36 23.15529 119.55128 26867 ft 441 kts 57°
2026-04-26 13:37 23.17118 119.57972 26421 ft 437 kts 57°
2026-04-26 13:37 23.18688 119.60790 25973 ft 433 kts 57°
2026-04-26 13:37 23.20246 119.63583 25512 ft 431 kts 57°
2026-04-26 13:37 23.21799 119.66359 25057 ft 429 kts 57°
2026-04-26 13:38 23.23346 119.69118 24593 ft 427 kts 56°
2026-04-26 13:38 23.24890 119.71879 24130 ft 426 kts 57°
2026-04-26 13:38 23.26427 119.74633 23646 ft 426 kts 57°
2026-04-26 13:38 23.27960 119.77388 23144 ft 424 kts 57°
2026-04-26 13:39 23.29477 119.80118 22644 ft 422 kts 57°
2026-04-26 13:39 23.30982 119.82829 22333 ft 415 kts 57°
2026-04-26 13:39 23.32467 119.85504 21799 ft 409 kts 57°
2026-04-26 13:39 23.33723 119.88214 21080 ft 403 kts 71°
2026-04-26 13:40 23.34211 119.91151 20619 ft 389 kts 89°
2026-04-26 13:40 23.33906 119.94011 20141 ft 375 kts 106°
2026-04-26 13:40 23.32892 119.96569 19671 ft 362 kts 123°
2026-04-26 13:40 23.31358 119.98676 19219 ft 350 kts 133°
2026-04-26 13:41 23.29761 120.00634 18772 ft 341 kts 132°
2026-04-26 13:41 23.28201 120.02554 18338 ft 338 kts 132°
2026-04-26 13:41 23.26649 120.04465 17859 ft 336 kts 132°
2026-04-26 13:41 23.25108 120.06363 17418 ft 334 kts 132°
2026-04-26 13:42 23.23577 120.08252 17001 ft 331 kts 132°
2026-04-26 13:42 23.22060 120.10125 16590 ft 331 kts 132°
2026-04-26 13:42 23.20553 120.11982 16153 ft 332 kts 132°
2026-04-26 13:42 23.19021 120.13867 15715 ft 333 kts 132°
2026-04-26 13:43 23.17486 120.15756 15288 ft 334 kts 132°
2026-04-26 13:43 23.15878 120.17571 14862 ft 334 kts 142°
2026-04-26 13:43 23.13929 120.18911 14420 ft 332 kts 157°
2026-04-26 13:43 23.11724 120.19650 13993 ft 330 kts 172°
2026-04-26 13:44 23.09443 120.19738 13558 ft 328 kts 187°
2026-04-26 13:44 23.07209 120.19308 13142 ft 326 kts 192°
2026-04-26 13:44 23.04986 120.18840 12734 ft 324 kts 192°
2026-04-26 13:44 23.02775 120.18382 12330 ft 323 kts 192°
2026-04-26 13:45 23.00577 120.17928 11928 ft 321 kts 192°
2026-04-26 13:45 22.98380 120.17477 11524 ft 321 kts 192°
2026-04-26 13:45 22.96187 120.17028 11121 ft 320 kts 192°
2026-04-26 13:45 22.94003 120.16578 10708 ft 319 kts 192°
2026-04-26 13:46 22.91851 120.16134 10317 ft 318 kts 192°
2026-04-26 13:46 22.89690 120.15688 10091 ft 312 kts 192°
2026-04-26 13:46 22.87595 120.15257 9937 ft 303 kts 192°
2026-04-26 13:46 22.85541 120.14833 9623 ft 300 kts 192°
2026-04-26 13:47 22.83492 120.14407 9246 ft 299 kts 192°
2026-04-26 13:47 22.81458 120.13986 8902 ft 297 kts 192°
2026-04-26 13:47 22.79431 120.13568 8558 ft 295 kts 192°
2026-04-26 13:47 22.77425 120.13155 8162 ft 291 kts 192°
2026-04-26 13:48 22.75440 120.12745 7528 ft 289 kts 192°
2026-04-26 13:48 22.73478 120.12341 6935 ft 286 kts 192°
2026-04-26 13:48 22.71526 120.11939 6342 ft 284 kts 192°
2026-04-26 13:48 22.69592 120.11541 5646 ft 283 kts 191°
2026-04-26 13:49 22.67660 120.11143 5012 ft 281 kts 190°
2026-04-26 13:49 22.65790 120.10759 4777 ft 264 kts 190°
2026-04-26 13:49 22.64050 120.10401 4637 ft 245 kts 190°
2026-04-26 13:49 22.62395 120.10214 4179 ft 239 kts 174°
2026-04-26 13:50 22.60843 120.10667 3948 ft 224 kts 153°
2026-04-26 13:50 22.59629 120.11600 3802 ft 207 kts 134°
2026-04-26 13:50 22.58810 120.12808 3636 ft 195 kts 117°
2026-04-26 13:50 22.58385 120.14133 3441 ft 193 kts 101°
2026-04-26 13:51 22.58291 120.15576 3245 ft 192 kts 93°
2026-04-26 13:51 22.58249 120.17025 2959 ft 191 kts 93°
2026-04-26 13:51 22.58207 120.18458 2708 ft 190 kts 93°
2026-04-26 13:51 22.58164 120.19886 2461 ft 189 kts 93°
2026-04-26 13:52 22.58122 120.21308 2220 ft 189 kts 93°
2026-04-26 13:52 22.58079 120.22727 1975 ft 187 kts 93°
2026-04-26 13:52 22.58038 120.24117 1732 ft 181 kts 94°
2026-04-26 13:52 22.57999 120.25428 1491 ft 168 kts 94°
2026-04-26 13:53 22.57963 120.26622 1301 ft 151 kts 94°
2026-04-26 13:53 22.57930 120.27712 1106 ft 144 kts 93°
2026-04-26 13:53 22.57897 120.28800 920 ft 142 kts 93°
2026-04-26 13:53 22.57867 120.29852 744 ft 143 kts 93°
2026-04-26 13:54 22.57837 120.30930 572 ft 144 kts 93°
2026-04-26 13:54 22.57802 120.32017 364 ft 145 kts 93°
2026-04-26 13:54 22.57765 120.33130 175 ft 150 kts 92°
2026-04-26 13:55 22.57703 120.35129 37 ft 86 kts 92°
2026-04-26 13:55 22.57694 120.35431 38 ft 48 kts 91°
2026-04-26 13:55 22.57585 120.35913 39 ft 17 kts 181°
2026-04-26 13:56 22.57519 120.35839 38 ft 16 kts 294°